Home   Weather   USA   Cleburne   Past weeks
Flag for USA

Past Weather in Cleburne, Texas, USA — Yesterday and Last 2 Weeks

Currently: 75 °F. Overcast. (Weather station: Cleburne Municipal Airport, USA). See more current weather

Past Weather in Cleburne — Graph

°F

Cleburne Temperature Yesterday

Maximum temperature yesterday: 84 °F (at 3:15 pm)
Minimum temperature yesterday: 68 °F (at 12:55 am)
Average temperature yesterday: 78 °F

High & Low Weather Summary for the Past Weeks

 TemperatureHumidityPressure
High95 °F (Jun 13, 4:15 pm)100% (Jun 8, 3:15 am)30.08 "Hg (Jun 8, 3:15 am)
Low68 °F (Jun 22, 12:55 am)34% (Jun 16, 4:55 pm)29.74 "Hg (Jun 20, 4:55 pm)
Average82 °F75%29.94 "Hg
* Reported Jun 8 3:15 am — Jun 23 3:35 am, Cleburne. Weather by CustomWeather, © 2021

Note: Actual official high and low records may vary slightly from our data, if they occured in-between our weather recording intervals... More about our weather records

Cleburne Weather History for the Previous 24 Hours

Scroll right to see more
 ConditionsComfort  
Time TempWeatherWind HumidityBarometerVisibility
3:35 am
Wed, Jun 23
75 °FOvercast.9 mph100%29.97 "Hg9 mi
3:15 am75 °FPassing clouds.9 mph100%29.97 "Hg10 mi
2:55 am75 °FPassing clouds.12 mph94%29.97 "Hg10 mi
2:35 am75 °FPassing clouds.10 mph94%29.97 "Hg10 mi
2:15 am75 °FClear.9 mph94%29.97 "Hg10 mi
1:55 am75 °FClear.8 mph94%29.97 "Hg10 mi
1:35 am75 °FPassing clouds.9 mph94%29.97 "Hg10 mi
12:55 am75 °FOvercast.7 mph94%29.98 "Hg10 mi
12:35 am75 °FOvercast.9 mph94%29.98 "Hg10 mi
12:15 am75 °FOvercast.8 mph94%29.99 "Hg10 mi
11:55 pm
Tue, Jun 22
75 °FOvercast.7 mph94%29.98 "Hg10 mi
11:35 pm75 °FOvercast.7 mph89%29.98 "Hg10 mi
11:15 pm75 °FOvercast.7 mph89%29.98 "Hg10 mi
10:55 pm75 °FMostly cloudy.8 mph89%29.98 "Hg10 mi
10:35 pm75 °FPassing clouds.9 mph89%29.97 "Hg10 mi
10:15 pm75 °FPassing clouds.8 mph89%29.96 "Hg10 mi
9:55 pm77 °FPassing clouds.7 mph83%29.95 "Hg10 mi
9:35 pm77 °FPassing clouds.7 mph83%29.95 "Hg10 mi
9:15 pm77 °FPassing clouds.8 mph83%29.94 "Hg10 mi
8:55 pm77 °FClear.6 mph83%29.94 "Hg10 mi
8:35 pm79 °FPassing clouds.7 mph74%29.94 "Hg10 mi
8:15 pm79 °FSunny.7 mph74%29.93 "Hg10 mi
7:55 pm81 °FSunny.7 mph70%29.93 "Hg10 mi
7:35 pm81 °FPassing clouds.N/A70%29.94 "Hg10 mi
6:55 pm82 °FPassing clouds.5 mph66%29.94 "Hg10 mi
6:35 pm82 °FScattered clouds.10 mph66%29.95 "Hg10 mi
6:15 pm82 °FPassing clouds.9 mph66%29.95 "Hg10 mi
5:55 pm81 °FPartly sunny.8 mph70%29.96 "Hg10 mi
5:35 pm82 °FMostly cloudy.9 mph70%29.97 "Hg10 mi
5:15 pm81 °FMostly cloudy.8 mph70%29.98 "Hg10 mi
4:55 pm81 °FOvercast.9 mph70%29.99 "Hg8 mi
4:35 pm81 °FOvercast.10 mph70%30.00 "Hg10 mi
4:15 pm81 °FOvercast.10 mph70%30.00 "Hg10 mi
3:55 pm81 °FMostly cloudy.9 mph70%30.01 "Hg10 mi
3:35 pm82 °FMostly cloudy.9 mph66%30.01 "Hg9 mi
3:15 pm84 °FCloudy.12 mph62%30.02 "Hg9 mi
2:55 pm82 °FOvercast.10 mph66%30.03 "Hg10 mi
2:35 pm82 °FMostly cloudy.9 mph66%30.03 "Hg10 mi
2:15 pm82 °FPartly sunny.8 mph66%30.04 "Hg10 mi
1:55 pm82 °FScattered clouds.7 mph66%30.04 "Hg9 mi
1:35 pm81 °FBroken clouds.6 mph70%30.04 "Hg10 mi
1:15 pm81 °FMore clouds than sun.6 mph66%30.06 "Hg10 mi
12:55 pm79 °FMostly cloudy.6 mph74%30.06 "Hg10 mi
12:35 pm77 °FOvercast.9 mph74%30.06 "Hg2 mi
12:15 pm79 °FMostly cloudy.6 mph70%30.06 "Hg9 mi
11:55 am79 °FBroken clouds.3 mph70%30.05 "Hg10 mi
11:35 am79 °FMore clouds than sun.8 mph70%30.05 "Hg10 mi
10:55 am77 °FPassing clouds.6 mph69%30.05 "Hg10 mi
10:35 am75 °FPassing clouds.10 mph74%30.05 "Hg8 mi
10:15 am75 °FMore clouds than sun.13 mph74%30.05 "Hg10 mi
9:55 am73 °FMostly cloudy.12 mph74%30.07 "Hg9 mi
9:35 am72 °FOvercast.7 mph78%30.07 "Hg9 mi
9:15 am72 °FOvercast.10 mph78%30.08 "Hg8 mi
8:55 am70 °FOvercast.8 mph83%30.08 "Hg10 mi
Weather by CustomWeather, © 2021

See weather overview